Regional Weather Roundup
Issued by NWS

Home | Current Version | Previous Version | Graphics & Text | Print | Product List | Glossary On
Versions: 1 2 3 4 5 6 7 8 9 10 11 12 13 14 15 16 17 18 19 20 21 22 23 24 25 26 27 28 29 30 31 32 33 34 35 36 37 38 39 40 41 42 43 44 45 46 47 48 49 50
000
ASUS43 KIND 280609
RWRIN

WEATHER ROUNDUP FOR INDIANA
NATIONAL WEATHER SERVICE INDIANAPOLIS IN
200 AM EDT TUE JUL 28 2015

NOTE: "FAIR" INDICATES FEW OR NO CLOUDS BELOW 12,000 FEET WITH NO
SIGNIFICANT WEATHER AND/OR OBSTRUCTIONS TO VISIBILITY.

* - STATION DOES NOT REPORT WEATHER SUCH AS PRECIPITATION OR FOG.

+ - STATION NOT QUALITY CONTROLLED BY THE NATIONAL WEATHER SERVICE.
    USE DATA WITH CAUTION...ESPECIALLY DEWPOINT AND RELATIVE
    HUMIDITY OBSERVATIONS.

INZ001>003-010>013-019-020-280700-
NORTHWEST INDIANA

CITY           SKY/WX    TMP DP  RH WIND       PRES   REMARKS
GARY /AIRPORT/ PTCLDY    70  69  95 E3        29.99F
KNOX *+        PTCLDY    68  63  83 E5        30.00F
LA PORTE +     PTCLDY    66  66 100 CALM      30.02F
6HR MIN TEMP:  66; 6HR MAX TEMP:  80;

MICHIGAN CITY+ PTCLDY    64  64 100 CALM      30.01F
MONTICELLO +   MOCLDY    73  66  79 E3        29.99S
6HR MIN TEMP:  72; 6HR MAX TEMP:  81;

RENSSELAER +   MOCLDY    70  68  94 E3        29.99S
VALPARAISO     PTCLDY    67  63  87 E6        30.01F
6HR MIN TEMP:  67; 6HR MAX TEMP:  79; 6HR PCP: TRACE;


$$

LMZ046-743>745-280700-
SOUTHERN LAKE MICHIGAN

STATION/POSITION TIME  TEMP    WIND        PRES    WAVE
                       AIR SEA DIR/SP/G            HT
                 (UTC) (F)     (DEG/KT/KT) (MB)    (FT)
BURNS HARBOR     0500   73      70/  6/  6 1016.6F
MICHIGAN CITY    0500   72      60/  2/  2   N/A
5NW MICH CITY    0600   74 75  100/  6/ 10   N/A     1

$$

INZ004-005-014>016-021>024-280700-
NORTH CENTRAL INDIANA

CITY           SKY/WX    TMP DP  RH WIND       PRES   REMARKS
GOSHEN         PTCLDY    67  63  87 CALM      30.03F
6HR MIN TEMP:  65; 6HR MAX TEMP:  82;

LOGANSPORT +   CLOUDY    72  59  64 E6        30.01S
PERU/GRISSOM   MOCLDY    72  64  75 E5        29.99F
6HR MIN TEMP:  71; 6HR MAX TEMP:  81;

ROCHESTER +    PTCLDY    72  66  83 CALM      30.02S
SOUTH BEND     PTCLDY    69  63  81 E3        30.03S
6HR MIN TEMP:  69; 6HR MAX TEMP:  83;

WARSAW +       CLEAR     68  63  83 E3        30.03S

$$

INZ006>009-017-018-025>027-280700-
NORTHEAST INDIANA

CITY           SKY/WX    TMP DP  RH WIND       PRES   REMARKS
ANGOLA *+      CLEAR     66  57  72 E3        30.04F
AUBURN +       CLEAR     68  61  77 CALM      30.04F
FORT WAYNE     MOCLDY    70  63  78 E3        30.03S
6HR MIN TEMP:  70; 6HR MAX TEMP:  82; 6HR PCP: TRACE;

HUNTINGTON +   CLEAR     69  64  83 E3        30.01F
6HR MIN TEMP:  69; 6HR MAX TEMP:  80;


$$

INZ028-029-035-036-043>045-051>053-280700-
WEST CENTRAL INDIANA

CITY           SKY/WX    TMP DP  RH WIND       PRES   REMARKS
CRAWFORDSVL +  CLOUDY    72  71  98 E6          N/A
6HR MIN TEMP:  71; 6HR MAX TEMP:  80; 6HR PCP:  0.04;

GREENCASTLE +  MOCLDY    73  68  83 E3        29.98F
LAFAYETTE      CLOUDY    73  67  81 NE6       29.97F
6HR MIN TEMP:  72; 6HR MAX TEMP:  81;

TERRE HAUTE    MOCLDY    75  73  93 E3        29.95F
6HR MIN TEMP:  74; 6HR MAX TEMP:  84;


$$

INZ030>032-037>040-046>048-054>057-064-065-280700-
CENTRAL INDIANA

CITY           SKY/WX    TMP DP  RH WIND       PRES   REMARKS
FISHERS *+     MOCLDY    73  73 100 E3        29.99F
FRANKFORT +    MOCLDY   N/A N/A N/A CALM      30.01S
GREENWOOD *+   MOCLDY    75  70  83 CALM      29.99F
INDIANAPOLIS   CLOUDY    76  71  85 E7        29.97F
6HR MIN TEMP:  76; 6HR MAX TEMP:  83; 6HR PCP:  0.01;

-EAGLE CREEK   MOCLDY    76  71  85 E5        29.98F
6HR MIN TEMP:  76; 6HR MAX TEMP:  83;

KOKOMO *+      PTCLDY    70  64  83 E6        30.00F
6HR MIN TEMP:  70; 6HR MAX TEMP:  81;

MARION +       PTCLDY    69  64  84 NE5       30.01F
MT COMFORT *+  MOCLDY    73 N/A N/A E5        29.99F
SHELBYVILLE    MOCLDY    75  71  87 E6        29.97F
6HR MIN TEMP:  75; 6HR MAX TEMP:  84;

ZIONSVILLE +   MOCLDY    74  70  87 E3        30.00F
6HR MIN TEMP:  73; 6HR MAX TEMP:  81;


$$

INZ033-034-041-042-049-050-058-059-280700-
EAST CENTRAL INDIANA

CITY           SKY/WX    TMP DP  RH WIND       PRES   REMARKS
MUNCIE         PTCLDY    72  68  87 E5        30.01F
6HR MIN TEMP:  71; 6HR MAX TEMP:  81;


$$

INZ060-061-067>069-081>083-085>088-280700-
SOUTHWEST INDIANA

CITY           SKY/WX    TMP DP  RH WIND       PRES   REMARKS
EVANSVILLE     CLOUDY    76  71  85 SW3       29.96S
6HR MIN TEMP:  76; 6HR MAX TEMP:  87;

HUNTINGBURG *+ CLOUDY    79  75  89 SW7       29.95F
6HR MIN TEMP:  77; 6HR MAX TEMP:  84;

WASHINGTON +   CLOUDY    75  71  87 CALM      29.94F
6HR MIN TEMP:  75; 6HR MAX TEMP:  86; 6HR PCP:  0.01;


$$

INZ062-063-066-070>080-084-089>092-280700-
SOUTH CENTRAL AND SOUTHEAST INDIANA

CITY           SKY/WX    TMP DP  RH WIND       PRES   REMARKS
BLOOMINGTON    MOCLDY    75  72  90 SE6       29.97F
6HR MIN TEMP:  75; 6HR MAX TEMP:  85; 6HR PCP: TRACE;

MADISON *+     MOCLDY    75  72  88 CALM      30.00F
NORTH VERNON + MOCLDY    75  75 100 CALM      29.99F
SEYMOUR +      CLOUDY    79  73  83 NE3       29.97F

$$




USA.gov is the U.S. government's official web portal to all federal, state and local government web resources and services.